User: anonymous   Login
Location: Unspecified
(0.0000°N, 0.0000°E)
Time: 18:19:48
(UTC+00:00)
Language:

NNS O-32 - Orbit

View from above orbital plane
View from above orbital plane
View from above satellite
View from above satellite

Ground track
Ground track

The orbit data is extracted from the following two-line orbital elements,

1 19071U 88033B   23273.18917432  .00000122  00000-0  23227-3 0  9996
2 19071  90.3247 351.6870 0186506 244.9820 183.2450 13.27770791715886
Epoch (UTC): 30 September 2023 04:32:24
Eccentricity: 0.0186506
inclination: 90.3247°
perigee height: 1014 km
apogee height: 1295 km
right ascension of ascending node: 351.6870°
argument of perigee: 244.9820°
revolutions per day: 13.27770791
mean anomaly at epoch: 183.2450°
orbit number at epoch: 71588

The dashed part of the orbit path shows where the satellite is in the earth's shadow,  

DLR